THOR AGENA B DEB, 1951

Orbit data source: Space-Track

THOR AGENA B DEB, 1951 is space debris in LEO originally from a launch on Mon, 29 Nov 1965 UTC launched from the Air Force Western Test Range (AFWTR). Debris objects in space refer to the collection of defunct objects orbiting the Earth. Examples of debris include non-operational satellites, rocket bodies, and fragments generated from explosions, collisions, or faulty payload assembly.

Loading next visibility...
Identifier
1951, 1965-098G
Orbit
LEO
Last TLE update
9 hours ago
Origin
Manufacturer
Unknown
Mission
Spacecraft
Bus & Motor
Unknown
Mass
~1 kg wet, ~1 kg dry
Launch date (UTC)
1965-11-29 (60 years ago)
Launch vehicle
Unknown
Launch site
Air Force Western Test Range (AFWTR)
Object type
Payload
Rocket body
Debris
Shape & HBR
Half Cyl + Cone, 1.5 m
Radar Cross Section
0.531 m², Medium (>0.1 m² and < 1m²)

Expand to show TLE details & history

TLE from 9 hours ago
0 THOR AGENA B DEB
1 01951U 65098G   25183.87242679  .00003219  00000-0  60348-3 0  9997
2 01951  79.6153 317.3737 0778295  42.8370 323.0779 13.54497339760273
Epoch: 2025-07-02T20:56Z
TLE epoch observation values (Epoch: 2025-07-02T20:56:17.674Z)
Latitude
-0.00011°
Longitude
82.15274°
Altitude
613.768 km
Speed
7.775 km/s
True Right ascension
21h 09m 29s
True Declination
0° 00' 00"
Sunlit
Object was in full shadow at epoch
Visualization orbit readout
Latitude
-23.45753°
Longitude
77.22863°
Altitude
788.896 km
Speed
7.595 km/s
Apparent Right ascension
23h 59m 47s
Apparent Declination
-53° 22' 05"
Sunlit
Object is in full shadow
Visualization observer readout
Local Sidereal Time
17:27:17
Azimuth
133.543° SE
Elevation
-35.423°
Doppler factor
1
Orbital elements
Apogee altitude
1,631.432 km
Perigee altitude
474.698 km
Semi-major axis
7,431.202 km
Eccentricity
0.07783
Inclination
79.6153°
RAAN
317.3737°
Arg. of periapsis
42.837°
True anomaly
Unknown
Mean anomaly
323.0779°
Eccentric anomaly
Unknown
Mean motion
3.38809 °/min
Orbital period
106.25 mins
BSTAR
0.00060348
Loading maneuver chart data...
Loading SW <> Apogee altitude chart data...
Loading historical data...
Loading historical data...
Loading historical data...
Loading historical data...
Loading historical data...
Loading historical data...
Loading historical data...

THOR AGENA B DEB Visibility forecast

Observer location: undefined°, undefined°

Span
Click to sort rows by Start time (UTC) header in descending order
Start Az.
Max El. time (UTC)
Max El. Az.
Max El.
End time (UTC)
End Az.
6 mins2025-07-03 09:27:44.141Z166.27° S2025-07-03 09:30:44.141Z108.613° ESE31.623°2025-07-03 09:33:44.141Z30.703° NE
12 mins2025-07-03 20:31:44.141Z352.771° N2025-07-03 20:35:44.141Z73.8° E44.718°2025-07-03 20:43:44.141Z167.338° S
6 mins2025-07-03 22:20:44.141Z292.462° WNW2025-07-03 22:22:44.141Z272.83° WNW15.257°2025-07-03 22:26:44.141Z239.235° WSW
|